Regional Weather Roundup
Issued by NWS Columbia, SC

Current Version | Previous Version | Text Only | Print | Product List | Glossary On
Versions: 1 2 3 4 5 6 7 8 9 10 11 12 13 14 15 16 17 18 19 20 21 22 23 24 25 26 27 28 29 30 31 32 33 34 35 36 37 38 39 40 41 42 43 44 45 46 47 48 49 50
000
ASUS42 KCAE 120410
RWRCAE
REGIONAL WEATHER ROUNDUP
NATIONAL WEATHER SERVICE COLUMBIA SC
1200 AM EDT SAT JUL 12 2014

NOTE: "FAIR" INDICATES FEW OR NO CLOUDS BELOW 12,000 FEET WITH NO
SIGNIFICANT WEATHER AND/OR OBSTRUCTIONS TO VISIBILITY.

NOT ALL STATIONS ARE QUALITY CONTROLLED BY THE NATIONAL
WEATHER SERVICE. USE DATA WITH CAUTION...ESPECIALLY
DEWPOINT OBSERVATIONS.

SCZ001>056-GAZ040-063>065-077-120500-
...UPSTATE SOUTH CAROLINA...

CITY           SKY/WX    TMP DP  RH WIND       PRES   REMARKS
ANDERSON       MOCLDY    77  71  82 SE3       30.21S
LIBERTY        FAIR      75  32  21 SE3       30.23R
SPARTANBURG    FAIR      73  73 100 CALM      30.22R
CLEMSON        MOCLDY    79  68  69 SW7       30.24R
GREENVILLE     CLEAR     77  69  76 SE5       30.24R
GREENWOOD      CLOUDY    76  70  82 CALM      30.22R
GREER          CLEAR     74  70  87 S3        30.22R
ROCK HILL      CLEAR     72  69  90 CALM      30.23R
CHESTER        FAIR      73  73 100 CALM      30.23R
LAURENS        FAIR      77  77 100 SE3       30.22S


...CENTRAL SOUTH CAROLINA...

CITY           SKY/WX    TMP DP  RH WIND       PRES   REMARKS
COLUMBIA APT   PTCLDY    78  72  81 E5        30.18R
COLUMBIA OWENS PTCLDY    76  72  87 CALM      30.20R
DARLINGTON     PTCLDY    73  70  88 CALM      30.20F
FLORENCE       PTCLDY    75  72  90 SE3       30.19S
MCENTIRE ANGB  PTCLDY    72  72  99 CALM      30.20R
ORANGEBURG     CLEAR     75  70  84 CALM      30.19S
SUMTER SHAW    PTCLDY    75  74  95 E1        30.18R
NEWBERRY       FAIR      73  73 100 CALM      30.23S
AIKEN          FAIR      75  75 100 CALM      30.23S
BARNWELL       MOCLDY    75  75 100 CALM      30.20R
MANNING        FAIR      75 N/A N/A CALM      30.19S
CAMDEN         FAIR      73  73 100 CALM      30.20F FOG
LANCASTER        N/A     73  73 100 CALM      30.22R
WINNSBORO      FAIR      73  72  94 CALM      30.21R


...EASTERN AND COASTAL SOUTH CAROLINA...

CITY           SKY/WX    TMP DP  RH WIND       PRES   REMARKS
MYRTLE BEACH   PTCLDY    79  72  78 SE5       30.19F
N MYRTLE BCH   PTCLDY    75  71  87 S3        30.19F
CONWAY         FAIR      72  72 100 CALM      30.19F FOG
MARION         FAIR      73  73 100 CALM      30.20S
HARTSVILLE     FAIR      73  73 100 CALM      30.21S
FLORENCE       PTCLDY    75  72  90 SE3       30.19S
DARLINGTON     PTCLDY    73  70  88 CALM      30.20F
CHARLESTON APT MOCLDY    76  73  91 CALM      30.18S
MOUNT PLEASANT LGT RAIN  73  73 100 CALM      30.19R
WALTERBORO     MOCLDY    73 N/A N/A E3        30.19S
BEAUFORT       CLOUDY    81  76  84 S3        30.17S THUNDER


...EASTERN GEORGIA...

CITY           SKY/WX    TMP DP  RH WIND       PRES   REMARKS
AUGUSTA BUSH F PTCLDY    73  71  93 S3        30.18R
AUGUSTA DANIEL PTCLDY    78  73  84 SE3       30.20R
THOMSON        MOCLDY    76  76 100 CALM      30.24S
WASHINGTON     FAIR      79  79 100 CALM      30.20F
CLAXTON        FAIR     N/A N/A N/A CALM      30.18S
SYLVANIA       MOCLDY    75  74  98 CALM      30.19S
STATESBORO     MOCLDY    74  74 100 CALM      30.18S
SAVANNAH       MOCLDY    78  75  90 CALM      30.18R


...SOUTHERN NORTH CAROLINA...

CITY           SKY/WX    TMP DP  RH WIND       PRES   REMARKS
CHARLOTTE      CLEAR     74  68  81 S3        30.23R
MONROE         CLEAR     70  68  93 CALM      30.21R
WADESBORO      CLEAR     71  68  91 CALM      30.20S
ROCKINGHAM       N/A     73  72  94 CALM      30.20S
RUTHERFORDTON  PTCLDY    74  70  88 CALM      30.25R
ASHEVILLE      PTCLDY    72  68  87 S3        30.29R

$$


USA.gov is the U.S. government's official web portal to all federal, state and local government web resources and services.